Zurück zum Katalog

STARLINK-4647

AktivKommunikationVLEO
NORAD 53608·PAYLOAD·🇺🇸 United States

Gestartet Aug 28, 2022 von Cape Canaveral Space Force Station

Loading…

Nächste Überflüge (nächste 24 Stunden)

TLE

AktuellSource: CelesTrak SupGP

Epoche: Sep 15, 2026, 02:36 UTC

1 53608C 22104W   26258.10881944 -.00002706  00000+0 -79949-4 0  2585
2 53608  53.1578  93.0400 0001121  85.1780 330.3105 15.34395496    18

Verfolge STARLINK-4647 in Echtzeit mit AllMySat

Download on the App Store